Weather in Podgornoye

Russia / Rostov Oblast     46°32′05″N   43°07′58″E
temp.,
°C
wind,
m/s
gust,
m/s
humid.,
%
clouds,
%
prec.,
mm/h
press.,
hPa
HPBL,
m
29 june, wed
wed2900:00+20nw3551100 0.0 101395
03:00+19nnw494868 0.0 1012153
06:00+21ene497097 0.0 1013307
09:00+26ene675424 0.0 1013894
12:00+28ene76420 0.0 10141492
15:00+29ene653411 0.0 10132076
18:00+28ne54337 0.0 10132105
21:00+22ene611330 0.0 1014242
30 june, thu
thu3000:00+20ene714310 0.0 1015368
03:00+18ene5123743 0.0 1015285
06:00+19ene510392 0.0 1016319
09:00+24ene552811 0.0 10151046
12:00+27ne432559 0.0 10142057
15:00+28ne43210 0.0 10132456
18:00+27ne53230 0.0 10122130
21:00+21ene59345 0.0 1013143
1 july, fri
fri100:00+21ene41036100 0.0 1013228
03:00+20n4538100 0.0 1013114
06:00+20nne234026 0.0 101380
09:00+25ne22295 0.0 10131930
12:00+27nnw332774 0.0 10122890
15:00+29nne442514 0.0 10112911
18:00+27n5625100 0.0 1011925
21:00+23n4933100 0.0 1012210
2 july, sat
sat200:00+21ne7113777 0.0 1013503
03:00+18nne610495 0.0 1013408
06:00+17nne710470 0.0 1015454
09:00+21nne78310 0.0 10161542
12:00+24n78290 0.0 10162088
15:00+25n77270 0.0 10152193
18:00+24nnw66290 0.0 10162132
21:00+19nnw49400 0.0 1017158
3 july, sun
sun300:00+17n48462 0.0 1017142
03:00+16n475574 0.0 1017108
06:00+17nne34532 0.0 1017126
09:00+23n34355 0.0 10171701
12:00+26n342939 0.0 10162427
15:00+27ne342867 0.0 10152623
18:00+27ene322910 0.0 10152091
21:00+24ese333653 0.0 101644